Temp
49 50 51 51 51 51 51 52 52 51 51 51 51 51 51 51 50 50 50 51 51 52 52 52 52 53 54 55 55 55 55 55 56 57 58 58 57 57 57 56 56 56 57 57 57 56 55 56 58 61 58 56
47 49 50 50 50 50 50 50 51 50 50 50 49 49 49 49 47 48 48 49 49 50 50 49 50 51 53 53 54 54 54 54 54 55 56 56 56 56 55 55 54 54 55 55 55 55 54 54 54 57 58 55
39 47 48 49 49 49 49 49 49 49 49 48 47 47 47 47 46 45 46 47 48 48 48 48 47 49 51 52 53 53 52 52 53 54 54 54 55 54 54 53 52 53 54 54 54 54 53 52 52 53 53 53
36 41 47 47 47 48 48 48 48 48 47 47 46 46 45 45 42 42 41 45 44 46 46 46 46 48 49 50 51 51 51 51 51 52 53 52 53 52 52 51 50 51 51 52 52 52 51 50 50 46 49 50
36 39 45 41 43 45 46 46 47 46 45 44 41 43 43 41 38 37 37 38 41 44 42 44 45 46 47 48 48 49 48 48 50 51 51 51 51 50 49 49 47 48 49 50 51 50 49 48 44 45 46 47
36 37 40 36 35 35 41 41 43 38 37 40 33 40 37 35 38 37 36 37 41 40 42 41 44 45 46 46 46 47 46 46 47 49 49 49 49 48 47 46 41 43 45 47 49 48 48 43 43 44 44 45
36 36 35 34 35 36 39 39 38 34 36 32 32 33 33 36 34 35 35 37 40 40 42 41 43 43 44 44 44 44 43 44 45 46 46 46 46 45 44 38 38 40 41 41 46 46 43 42 42 43 43 43
35 34 34 34 34 34 34 33 35 33 33 33 32 33 34 34 34 34 33 39 39 39 37 38 41 42 42 41 41 42 39 40 41 43 42 43 43 40 38 37 37 38 39 40 41 41 42 42 42 42 43 42
32 34 32 32 32 33 33 33 33 34 33 33 32 32 33 32 34 32 32 31 32 32 33 35 37 37 38 38 37 40 36 37 37 38 37 37 38 37 36 36 36 37 37 38 39 40 41 41 42 42 42 41
35 34 30 31 33 32 32 32 33 33 32 33 33 32 33 36 33 31 31 29 29 31 31 32 34 36 37 36 36 38 36 36 36 36 36 36 36 36 37 37 37 37 37 37 38 39 40 41 41 41 41 41
31 30 30 30 32 31 30 31 31 31 31 32 32 32 33 33 31 30 29 29 28 28 29 30 32 34 35 35 36 37 36 35 35 35 35 35 35 36 36 36 37 37 36 37 37 38 38 39 40 41 41 41
29 29 30 32 33 29 34 31 29 29 30 31 31 32 32 34 31 30 28 29 28 28 28 29 29 31 33 34 35 36 35 34 34 34 35 34 34 34 35 35 35 36 37 36 37 36 37 37 38 39 40 41
28 28 28 28 28 28 34 28 28 29 30 29 30 31 31 32 30 30 30 28 28 27 27 28 28 28 29 32 34 35 34 34 33 33 34 34 33 34 34 34 34 35 36 36 36 35 36 35 36 37 38 40
27 27 26 28 27 27 31 26 28 28 28 28 28 29 30 30 30 29 29 28 27 26 27 27 26 27 27 29 32 33 32 34 33 33 33 33 33 33 33 33 34 35 34 35 36 35 35 34 35 36 36 38
26 27 26 28 26 26 27 27 29 27 27 27 27 29 28 28 29 30 29 27 26 26 27 26 26 26 26 26 29 32 31 32 32 33 33 33 32 32 33 33 34 34 33 34 35 36 35 34 35 35 35 37
26 27 26 27 26 26 27 28 26 25 26 28 27 28 27 28 28 30 28 27 27 28 26 26 25 25 26 26 27 30 30 31 32 32 33 33 33 33 33 33 33 34 33 33 34 35 35 36 34 34 35 35
26 25 25 25 25 27 28 26 26 25 26 26 27 27 26 27 28 29 26 26 26 28 24 25 24 24 26 26 27 27 28 30 30 31 31 31 33 32 32 32 32 33 32 32 33 34 34 35 35 36 35 35
24 25 25 27 24 27 26 24 23 25 25 26 27 26 26 26 27 27 26 25 25 25 24 24 24 24 24 25 25 26 27 27 28 28 29 30 30 31 31 30 31 31 30 31 32 32 34 35 35 36 36 34
25 27 24 23 23 24 24 26 24 23 24 23 25 25 25 26 26 26 24 24 24 24 24 23 23 23 23 25 25 23 24 25 26 27 27 29 27 29 29 30 30 30 30 30 30 31 33 33 34 35 35 36
23 23 23 23 27 23 23 24 23 22 23 24 23 24 24 24 26 25 23 24 23 23 23 23 22 23 24 23 24 23 23 25 24 25 26 27 28 26 26 28 27 30 29 29 29 31 31 32 33 34 35 35
22 23 22 23 23 22 23 22 22 22 23 23 23 23 23 23 25 23 23 23 23 22 23 22 22 22 23 23 22 22 22 22 25 24 24 25 27 27 25 26 26 27 28 28 29 30 30 31 32 33 34 35
23 23 23 22 22 25 23 22 22 22 23 22 22 22 22 23 24 25 22 22 23 22 24 23 22 22 22 22 22 22 22 22 23 22 23 23 24 26 25 25 25 25 27 27 27 28 29 30 32 33 33 35
23 22 22 22 22 21 22 22 21 22 22 22 22 21 22 23 22 24 22 22 22 22 22 21 22 21 21 22 21 21 21 21 22 23 22 22 23 24 24 25 25 25 26 26 26 27 28 30 31 32 33 34
21 21 21 20 21 21 21 21 22 23 22 22 21 23 22 22 22 22 23 22 22 21 22 21 21 21 21 21 21 20 20 20 20 21 21 21 23 22 23 25 25 25 24 25 25 27 28 29 30 31 32 33
20 19 19 20 20 19 20 20 22 22 21 21 21 22 21 21 22 21 21 23 21 21 23 22 20 21 21 21 21 21 21 21 20 22 22 22 22 22 21 22 23 24 25 23 23 26 26 27 30 32 34 33
22 20 19 19 18 19 19 19 19 19 20 21 23 22 21 21 21 20 20 22 22 22 21 20 20 20 20 20 20 22 21 22 23 21 20 21 19 22 21 20 23 23 23 19 20 19 20 25 29 31 31 31
20 21 21 19 19 19 19 21 21 20 21 22 21 21 21 21 20 20 20 20 22 21 21 20 20 20 20 19 21 20 19 19 19 20 19 20 19 19 20 21 23 22 22 19 22 21 21 17 23 28 28 30
22 21 21 21 20 20 19 19 21 22 22 21 20 20 21 20 20 20 19 20 20 21 20 20 20 20 19 19 20 19 18 19 19 19 19 19 20 20 16 18 19 23 22 20 20 11 15 19 20 18 21 24
21 21 20 20 20 20 19 20 19 19 19 20 21 21 19 20 20 20 20 20 20 21 20 20 20 19 19 19 19 20 18 18 19 19 19 19 19 18 17 16 18 20 21 20 22 19 17 8 10 12 21 21
21 21 19 18 17 15 16 16 16 16 16 17 18 18 20 20 20 20 20 20 20 20 21 20 20 19 19 19 19 19 19 19 19 19 18 19 19 18 19 17 16 15 21 22 22 22 22 21 14 16 16 20
22 19 19 18 17 17 16 15 17 18 19 18 19 19 19 19 19 20 19 20 19 20 20 20 19 19 19 19 19 20 19 18 18 19 19 20 19 18 20 18 15 16 17 21 20 21 22 22 22 21 17 8
MSLP
1029.77 1029.61 1029.41 1029.29 1029.17 1029.01 1028.85 1028.69 1028.53 1028.41 1028.33 1028.25 1028.17 1027.97 1027.77 1027.69 1027.61 1027.41 1027.05 1026.85 1026.57 1026.33 1026.29 1026.01 1025.77 1025.53 1025.17 1024.77 1024.45 1024.13 1023.85 1023.45 1022.73 1022.01 1021.45 1021.01 1020.85 1020.73 1020.45 1020.25 1020.05 1019.69 1019.17 1018.73 1018.37 1018.13 1017.77 1017.41 1017.05 1016.57 1016.61 1016.49
1030.01 1029.81 1029.61 1029.49 1029.37 1029.25 1029.09 1028.93 1028.77 1028.65 1028.53 1028.45 1028.41 1028.29 1028.17 1028.01 1027.97 1027.81 1027.53 1027.13 1026.93 1026.57 1026.53 1026.49 1026.13 1025.77 1025.41 1025.05 1024.61 1024.21 1023.89 1023.49 1023.01 1022.45 1021.93 1021.57 1021.37 1021.13 1020.89 1020.69 1020.49 1020.21 1019.69 1019.25 1018.89 1018.61 1018.21 1018.01 1017.69 1017.33 1016.81 1016.73
1030.25 1030.01 1029.77 1029.65 1029.57 1029.41 1029.29 1029.13 1028.97 1028.85 1028.77 1028.69 1028.61 1028.53 1028.41 1028.29 1028.25 1028.17 1027.97 1027.57 1027.29 1026.93 1026.65 1026.53 1026.33 1025.93 1025.49 1025.17 1024.85 1024.45 1024.09 1023.77 1023.41 1022.89 1022.49 1022.01 1021.61 1021.49 1021.33 1021.13 1020.93 1020.61 1020.21 1019.85 1019.45 1019.17 1018.73 1018.49 1018.29 1017.93 1017.45 1017.29
1030.37 1030.21 1029.89 1029.77 1029.73 1029.57 1029.45 1029.29 1029.13 1029.01 1028.93 1028.81 1028.77 1028.61 1028.53 1028.45 1028.41 1028.37 1028.29 1027.89 1027.65 1027.25 1027.01 1026.69 1026.37 1026.01 1025.57 1025.25 1024.97 1024.65 1024.37 1024.13 1023.85 1023.37 1022.97 1022.65 1022.37 1022.17 1021.93 1021.53 1021.37 1021.17 1020.89 1020.41 1019.97 1019.65 1019.17 1018.93 1018.65 1018.45 1018.17 1017.93
1030.41 1030.25 1029.97 1029.97 1029.85 1029.69 1029.53 1029.37 1029.21 1029.13 1029.05 1028.93 1028.93 1028.73 1028.65 1028.53 1028.49 1028.41 1028.37 1028.25 1027.93 1027.53 1027.29 1026.97 1026.57 1026.21 1025.81 1025.45 1025.17 1024.85 1024.69 1024.45 1024.13 1023.77 1023.41 1023.05 1022.85 1022.85 1022.69 1022.13 1021.81 1021.61 1021.37 1020.97 1020.49 1020.09 1019.57 1019.25 1019.05 1018.93 1018.77 1018.53
1030.49 1030.33 1030.13 1030.05 1029.97 1029.89 1029.69 1029.53 1029.33 1029.33 1029.17 1029.05 1028.97 1028.81 1028.73 1028.61 1028.45 1028.37 1028.29 1028.21 1028.01 1027.85 1027.53 1027.29 1026.85 1026.53 1026.13 1025.81 1025.53 1025.25 1025.05 1024.81 1024.45 1024.05 1023.77 1023.49 1023.29 1023.21 1023.01 1022.69 1022.41 1022.13 1021.85 1021.45 1020.93 1020.41 1019.97 1019.65 1019.49 1019.25 1019.09 1018.93
1030.53 1030.37 1030.21 1030.05 1029.93 1029.85 1029.73 1029.61 1029.45 1029.37 1029.21 1029.09 1028.93 1028.81 1028.69 1028.53 1028.45 1028.29 1028.21 1028.09 1027.97 1027.89 1027.77 1027.49 1027.13 1026.81 1026.49 1026.17 1025.89 1025.65 1025.53 1025.21 1024.85 1024.45 1024.21 1023.93 1023.69 1023.57 1023.29 1023.09 1022.93 1022.69 1022.41 1022.01 1021.53 1021.01 1020.41 1020.09 1019.93 1019.69 1019.37 1019.25
1030.53 1030.37 1030.21 1030.09 1029.97 1029.85 1029.73 1029.61 1029.45 1029.33 1029.21 1029.05 1028.89 1028.77 1028.65 1028.49 1028.37 1028.25 1028.17 1027.97 1027.85 1027.81 1027.81 1027.65 1027.33 1027.05 1026.81 1026.49 1026.21 1025.85 1025.77 1025.53 1025.25 1024.89 1024.65 1024.37 1024.13 1023.97 1023.69 1023.41 1023.21 1023.05 1022.89 1022.49 1022.01 1021.49 1020.97 1020.45 1020.21 1019.97 1019.69 1019.53
1030.49 1030.33 1030.29 1030.13 1030.01 1029.85 1029.77 1029.65 1029.45 1029.33 1029.21 1029.05 1028.89 1028.73 1028.61 1028.45 1028.25 1028.21 1028.05 1027.93 1027.81 1027.73 1027.65 1027.53 1027.37 1027.13 1026.89 1026.65 1026.41 1026.05 1025.97 1025.81 1025.61 1025.33 1025.09 1024.81 1024.53 1024.37 1024.09 1023.73 1023.53 1023.37 1023.13 1022.89 1022.37 1021.81 1021.29 1020.85 1020.45 1020.25 1020.05 1019.93
1030.45 1030.37 1030.33 1030.21 1030.05 1029.93 1029.81 1029.65 1029.57 1029.41 1029.29 1029.09 1028.93 1028.77 1028.61 1028.37 1028.25 1028.13 1028.01 1027.85 1027.73 1027.61 1027.53 1027.45 1027.29 1027.21 1027.01 1026.81 1026.57 1026.29 1026.21 1026.01 1025.85 1025.65 1025.45 1025.17 1024.85 1024.65 1024.41 1024.13 1023.85 1023.69 1023.53 1023.17 1022.69 1022.17 1021.69 1021.21 1020.77 1020.57 1020.45 1020.21
1030.49 1030.41 1030.37 1030.33 1030.09 1030.05 1029.81 1029.73 1029.65 1029.53 1029.37 1029.17 1028.97 1028.81 1028.61 1028.41 1028.29 1028.13 1027.97 1027.77 1027.65 1027.53 1027.45 1027.41 1027.33 1027.29 1027.17 1027.01 1026.81 1026.53 1026.37 1026.13 1025.89 1025.69 1025.61 1025.41 1025.13 1024.93 1024.73 1024.45 1024.13 1023.85 1023.73 1023.49 1023.05 1022.45 1021.93 1021.61 1021.09 1020.69 1020.57 1020.37
1030.45 1030.41 1030.37 1030.29 1030.21 1030.13 1029.73 1029.81 1029.69 1029.61 1029.45 1029.25 1029.05 1028.85 1028.73 1028.53 1028.33 1028.13 1027.97 1027.77 1027.57 1027.41 1027.37 1027.29 1027.33 1027.29 1027.21 1027.17 1026.97 1026.73 1026.45 1026.25 1026.01 1025.85 1025.65 1025.53 1025.37 1025.17 1024.97 1024.73 1024.37 1023.97 1023.81 1023.61 1023.33 1022.85 1022.29 1021.81 1021.37 1020.97 1020.69 1020.49
1030.49 1030.45 1030.41 1030.33 1030.25 1030.13 1029.77 1029.89 1029.73 1029.61 1029.45 1029.29 1029.13 1028.97 1028.77 1028.57 1028.37 1028.13 1027.93 1027.73 1027.49 1027.37 1027.21 1027.17 1027.17 1027.25 1027.17 1027.09 1026.97 1026.77 1026.57 1026.29 1026.13 1025.97 1025.77 1025.65 1025.53 1025.37 1025.13 1024.85 1024.45 1024.09 1023.93 1023.73 1023.41 1023.09 1022.61 1022.17 1021.61 1021.09 1020.85 1020.69
1030.49 1030.49 1030.45 1030.33 1030.25 1030.13 1029.89 1029.85 1029.73 1029.57 1029.45 1029.33 1029.17 1029.01 1028.85 1028.65 1028.41 1028.17 1027.89 1027.65 1027.49 1027.41 1027.13 1027.01 1027.01 1027.09 1027.09 1027.13 1026.93 1026.81 1026.69 1026.41 1026.25 1026.05 1025.89 1025.69 1025.53 1025.37 1025.17 1024.93 1024.61 1024.29 1024.09 1023.85 1023.53 1023.09 1022.73 1022.33 1021.93 1021.57 1021.13 1020.85
1030.49 1030.53 1030.45 1030.37 1030.29 1030.13 1029.97 1029.85 1029.69 1029.61 1029.45 1029.29 1029.17 1029.05 1028.89 1028.65 1028.41 1028.09 1027.85 1027.65 1027.61 1027.41 1027.17 1027.01 1026.97 1027.01 1027.01 1027.01 1026.97 1026.85 1026.73 1026.57 1026.33 1026.09 1025.89 1025.65 1025.49 1025.33 1025.09 1025.01 1024.77 1024.49 1024.25 1023.97 1023.57 1023.13 1022.77 1022.41 1022.05 1021.73 1021.41 1021.05
1030.45 1030.45 1030.41 1030.33 1030.29 1030.13 1030.01 1029.85 1029.73 1029.61 1029.41 1029.25 1029.13 1029.01 1028.89 1028.69 1028.49 1028.21 1028.09 1027.97 1027.81 1027.57 1027.45 1027.17 1027.01 1027.01 1026.97 1026.85 1026.81 1026.77 1026.69 1026.57 1026.37 1026.13 1025.89 1025.65 1025.45 1025.29 1025.09 1024.97 1024.81 1024.61 1024.45 1024.13 1023.77 1023.29 1022.89 1022.41 1022.09 1021.73 1021.45 1021.21
1030.37 1030.41 1030.33 1030.25 1030.21 1030.13 1030.01 1029.93 1029.77 1029.57 1029.37 1029.21 1029.05 1028.93 1028.85 1028.73 1028.53 1028.37 1028.29 1028.13 1028.01 1027.85 1027.69 1027.45 1027.25 1027.13 1027.05 1026.93 1026.81 1026.61 1026.49 1026.37 1026.25 1026.09 1025.85 1025.61 1025.37 1025.17 1025.05 1024.93 1024.73 1024.53 1024.49 1024.25 1023.89 1023.49 1023.01 1022.57 1022.17 1021.77 1021.45 1021.21
1030.25 1030.25 1030.21 1030.09 1030.13 1030.09 1030.05 1029.97 1029.81 1029.57 1029.33 1029.17 1028.97 1028.85 1028.77 1028.65 1028.49 1028.37 1028.29 1028.21 1028.09 1027.97 1027.81 1027.69 1027.53 1027.37 1027.25 1027.09 1026.89 1026.73 1026.45 1026.29 1026.13 1026.01 1025.81 1025.57 1025.37 1025.09 1024.97 1024.89 1024.81 1024.61 1024.41 1024.21 1023.93 1023.61 1023.13 1022.77 1022.37 1021.85 1021.45 1021.13
1030.13 1030.13 1030.09 1030.05 1030.01 1030.01 1029.97 1029.85 1029.77 1029.61 1029.41 1029.17 1028.93 1028.77 1028.65 1028.57 1028.45 1028.29 1028.21 1028.13 1028.09 1028.01 1027.89 1027.81 1027.69 1027.53 1027.45 1027.25 1027.09 1026.93 1026.65 1026.37 1026.17 1026.01 1025.85 1025.65 1025.49 1025.17 1025.01 1024.81 1024.77 1024.65 1024.49 1024.29 1024.01 1023.69 1023.33 1022.89 1022.33 1021.93 1021.49 1020.97
1030.13 1030.09 1030.05 1029.93 1029.81 1029.85 1029.85 1029.77 1029.69 1029.61 1029.41 1029.17 1028.89 1028.69 1028.57 1028.45 1028.33 1028.21 1028.17 1028.05 1027.97 1027.93 1027.85 1027.85 1027.77 1027.69 1027.57 1027.37 1027.25 1027.05 1026.89 1026.65 1026.29 1026.09 1025.93 1025.73 1025.57 1025.33 1025.09 1024.73 1024.69 1024.49 1024.37 1024.05 1023.81 1023.45 1023.13 1022.77 1022.33 1021.85 1021.41 1021.01
1029.97 1029.97 1029.93 1029.81 1029.73 1029.69 1029.61 1029.61 1029.57 1029.53 1029.37 1029.09 1028.85 1028.61 1028.49 1028.37 1028.25 1028.13 1028.13 1028.01 1027.89 1027.85 1027.73 1027.69 1027.69 1027.61 1027.57 1027.45 1027.37 1027.17 1027.01 1026.85 1026.61 1026.33 1026.05 1025.89 1025.61 1025.45 1025.29 1025.01 1024.65 1024.37 1024.17 1023.89 1023.57 1023.17 1022.81 1022.41 1022.05 1021.69 1021.37 1020.97
1029.85 1029.85 1029.81 1029.69 1029.57 1029.45 1029.45 1029.45 1029.45 1029.41 1029.25 1029.05 1028.81 1028.57 1028.41 1028.29 1028.21 1028.09 1028.09 1027.97 1027.85 1027.77 1027.61 1027.53 1027.57 1027.53 1027.45 1027.41 1027.29 1027.21 1027.05 1026.89 1026.77 1026.65 1026.29 1025.97 1025.73 1025.45 1025.29 1025.09 1024.77 1024.45 1024.09 1023.81 1023.45 1023.01 1022.61 1022.17 1021.81 1021.49 1021.17 1020.81
1029.61 1029.69 1029.65 1029.49 1029.37 1029.37 1029.33 1029.29 1029.25 1029.21 1029.13 1028.97 1028.77 1028.57 1028.37 1028.21 1028.13 1028.09 1028.01 1027.93 1027.81 1027.73 1027.57 1027.45 1027.41 1027.41 1027.33 1027.25 1027.17 1027.09 1026.97 1026.85 1026.73 1026.61 1026.49 1026.29 1025.73 1025.53 1025.37 1025.01 1024.81 1024.57 1024.17 1023.81 1023.37 1022.93 1022.45 1021.97 1021.57 1021.21 1020.89 1020.45
1029.45 1029.49 1029.45 1029.41 1029.29 1029.21 1029.09 1029.09 1029.09 1028.97 1028.93 1028.89 1028.73 1028.45 1028.29 1028.13 1028.01 1027.97 1027.93 1027.85 1027.77 1027.69 1027.49 1027.37 1027.33 1027.29 1027.17 1027.09 1027.01 1026.89 1026.77 1026.69 1026.57 1026.45 1026.33 1026.33 1025.89 1025.49 1025.25 1025.01 1024.77 1024.53 1024.21 1023.69 1023.33 1022.81 1022.21 1021.93 1021.41 1020.85 1020.33 1020.05
1029.17 1029.29 1029.33 1029.29 1029.17 1029.09 1028.93 1028.97 1028.77 1028.73 1028.73 1028.69 1028.57 1028.37 1028.21 1028.05 1027.89 1027.85 1027.85 1027.73 1027.69 1027.57 1027.41 1027.33 1027.29 1027.21 1027.05 1026.97 1026.85 1026.73 1026.61 1026.57 1026.41 1026.21 1026.17 1026.09 1025.89 1025.65 1025.17 1024.93 1024.73 1024.49 1024.05 1023.73 1023.01 1022.53 1022.33 1021.73 1021.09 1020.21 1019.73 1019.77
1028.89 1028.97 1029.05 1029.09 1029.05 1028.93 1028.81 1028.81 1028.77 1028.69 1028.53 1028.41 1028.29 1028.21 1028.09 1027.93 1027.81 1027.73 1027.73 1027.69 1027.61 1027.45 1027.33 1027.25 1027.21 1027.09 1026.97 1026.85 1026.73 1026.53 1026.53 1026.41 1026.29 1026.21 1026.13 1025.89 1025.81 1025.53 1025.33 1024.97 1024.53 1024.45 1023.97 1023.93 1023.41 1022.69 1022.21 1021.49 1020.41 1019.69 1019.73 1019.65
1028.69 1028.69 1028.73 1028.81 1028.73 1028.73 1028.65 1028.45 1028.45 1028.41 1028.25 1028.13 1028.05 1028.09 1027.97 1027.85 1027.73 1027.65 1027.61 1027.57 1027.53 1027.37 1027.21 1027.17 1027.13 1027.01 1026.89 1026.81 1026.61 1026.57 1026.49 1026.41 1026.29 1026.17 1026.09 1025.89 1025.81 1025.49 1025.29 1025.01 1024.53 1024.33 1024.25 1024.33 1023.49 1023.33 1022.33 1022.77 1020.81 1020.41 1020.01 1019.73
1028.25 1028.41 1028.45 1028.49 1028.45 1028.49 1028.45 1028.41 1028.25 1028.13 1028.01 1027.93 1027.85 1027.85 1027.77 1027.69 1027.61 1027.53 1027.49 1027.41 1027.37 1027.25 1027.13 1027.05 1027.05 1026.97 1026.89 1026.77 1026.61 1026.53 1026.45 1026.29 1026.25 1026.13 1026.05 1025.89 1025.69 1025.53 1025.69 1025.09 1024.89 1024.41 1024.25 1024.33 1023.89 1024.65 1023.69 1022.25 1022.25 1021.17 1021.77 1021.37
1028.09 1028.29 1028.33 1028.29 1028.29 1028.29 1028.29 1028.17 1028.09 1028.09 1027.89 1027.69 1027.57 1027.53 1027.61 1027.57 1027.49 1027.41 1027.37 1027.29 1027.21 1027.09 1026.97 1026.89 1026.85 1026.85 1026.77 1026.69 1026.61 1026.49 1026.41 1026.25 1026.13 1026.05 1025.97 1025.85 1025.77 1025.73 1025.61 1025.53 1025.21 1025.05 1024.65 1024.41 1024.21 1024.33 1023.61 1024.57 1024.17 1023.29 1022.01 1022.37
1028.01 1028.13 1028.21 1028.25 1028.33 1028.33 1028.17 1028.05 1027.97 1027.89 1027.73 1027.57 1027.53 1027.45 1027.33 1027.37 1027.33 1027.29 1027.21 1027.09 1027.01 1026.93 1026.81 1026.73 1026.69 1026.69 1026.69 1026.65 1026.53 1026.45 1026.29 1026.17 1026.05 1025.93 1025.85 1025.77 1025.73 1025.69 1025.53 1025.61 1025.49 1025.53 1024.85 1024.57 1024.41 1024.25 1024.33 1024.05 1024.05 1023.29 1023.89 1022.85
1027.77 1027.97 1028.01 1027.97 1027.97 1027.93 1027.93 1027.89 1027.53 1027.41 1027.33 1027.29 1027.17 1027.09 1027.09 1027.13 1027.17 1027.13 1027.09 1026.93 1026.81 1026.73 1026.65 1026.57 1026.57 1026.57 1026.57 1026.53 1026.41 1026.25 1026.13 1026.05 1025.97 1025.85 1025.77 1025.65 1025.65 1025.61 1025.49 1025.53 1025.69 1025.41 1025.17 1024.73 1024.97 1024.53 1024.29 1024.13 1024.21 1024.21 1024.17 1026.05
Wind_Speed
18 19 19 19 20 20 20 21 21 21 22 22 23 23 23 22 21 22 22 21 22 20 20 20 20 21 23 23 24 24 25 25 26 27 27 27 28 28 28 27 26 26 26 27 25 25 28 25 26 5 4 4
15 17 18 18 19 19 19 19 20 20 21 21 22 21 22 22 21 20 21 21 21 21 20 20 20 20 21 22 23 24 25 25 26 26 27 26 27 27 28 27 27 26 26 25 26 26 25 26 27 19 10 5
6 14 16 17 18 18 18 18 19 19 20 20 20 20 20 20 20 19 20 21 20 21 21 20 19 20 19 21 22 22 23 24 25 25 25 26 27 27 26 26 26 26 25 25 25 24 25 24 23 23 11 9
5 8 15 16 16 16 17 17 17 18 18 17 16 17 17 17 13 13 12 20 16 19 19 20 18 20 19 20 20 21 22 22 23 24 24 24 24 26 25 26 24 25 25 23 23 23 24 22 21 13 10 11
5 6 12 9 11 14 15 15 16 15 13 12 10 12 13 11 7 5 5 8 10 17 13 18 19 19 19 19 19 20 21 21 22 23 24 23 23 23 25 23 24 24 23 24 22 22 21 21 11 11 11 11
5 5 8 6 5 5 8 9 10 6 5 7 4 8 6 4 4 4 4 5 9 8 12 13 19 18 18 18 18 19 20 20 21 22 22 23 23 23 23 25 12 13 18 22 22 20 20 12 9 10 11 11
5 6 5 5 5 5 8 7 6 5 4 4 4 4 4 4 3 3 3 5 8 9 14 13 17 17 17 16 17 17 18 18 19 21 21 23 22 23 23 13 11 11 10 11 19 16 11 8 9 9 10 10
5 4 4 5 4 5 5 5 5 5 5 4 5 4 4 4 3 3 3 6 9 9 5 7 13 15 14 14 14 16 11 15 15 18 20 19 21 15 10 9 11 11 10 10 9 8 8 8 9 9 9 8
5 4 4 5 5 4 5 5 5 6 5 5 5 5 5 4 3 3 3 3 4 4 4 5 5 6 6 7 7 12 7 8 8 10 9 10 11 9 10 10 10 11 11 10 10 9 8 8 8 8 8 7
3 4 5 5 5 5 5 5 6 5 6 6 6 5 6 5 5 4 3 3 3 3 3 5 4 5 6 6 7 8 6 7 7 8 7 8 8 9 9 9 9 9 10 11 11 9 9 9 8 7 7 7
3 4 4 4 4 4 4 5 5 6 6 6 6 6 6 6 6 6 4 4 3 3 2 3 4 4 5 5 6 6 6 6 6 5 7 7 7 8 8 10 10 9 9 10 11 11 11 10 9 7 7 7
3 3 4 4 4 4 5 5 5 5 5 6 6 6 6 7 6 6 6 5 3 3 2 2 3 4 4 4 4 6 4 6 5 6 6 6 7 8 7 8 10 9 9 9 9 11 11 11 9 8 8 7
3 3 3 3 4 5 5 4 4 4 5 5 6 5 7 7 7 6 6 5 4 3 2 2 2 3 3 4 4 4 5 5 5 5 5 6 6 7 7 7 8 9 9 9 8 8 9 10 11 11 9 8
3 3 3 3 4 4 4 4 4 4 4 5 5 5 6 7 6 6 6 5 4 2 3 1 2 2 3 3 4 4 4 5 5 4 5 5 5 6 6 7 8 8 8 10 9 8 8 9 7 8 10 9
2 2 2 3 3 3 3 4 4 4 4 4 4 5 6 6 6 6 6 4 4 4 2 2 2 3 2 4 3 4 4 4 4 4 4 5 5 5 6 6 6 7 8 8 9 9 9 8 8 7 7 9
1 2 2 2 3 4 3 3 3 4 4 4 4 4 5 5 6 6 6 6 5 4 4 3 3 2 3 3 4 3 4 4 4 4 4 5 4 5 4 6 5 6 7 8 7 9 9 9 8 8 7 8
1 2 2 2 3 4 3 4 3 4 4 4 3 3 4 5 5 4 5 6 5 4 4 4 3 3 3 3 5 5 4 5 3 4 4 5 5 5 4 5 6 6 5 7 8 8 8 8 9 8 8 7
1 1 2 1 2 3 3 4 4 4 4 4 4 3 4 4 4 3 4 4 5 4 4 4 3 3 4 4 4 5 5 5 4 4 5 5 5 6 6 6 6 7 6 6 6 7 8 8 8 8 8 8
1 1 2 2 2 3 3 4 5 5 5 4 4 4 4 4 4 2 3 3 4 4 3 4 4 4 4 4 3 4 5 5 4 5 5 5 5 5 6 5 6 6 6 7 7 7 7 8 8 8 8 8
2 2 2 2 3 2 3 4 4 4 5 5 4 4 4 3 4 2 3 2 3 3 3 3 4 3 4 3 3 3 3 3 6 5 4 5 5 5 6 7 7 5 7 7 7 7 7 7 8 8 7 8
2 2 2 3 3 3 3 3 4 4 5 5 4 4 4 3 3 2 3 3 3 2 3 2 2 3 3 2 3 3 2 3 3 5 5 4 5 4 5 6 7 7 6 7 8 8 8 8 8 7 7 8
3 2 3 3 4 3 3 4 4 4 5 5 5 4 4 2 2 3 4 3 3 3 3 2 2 3 3 3 2 3 2 2 2 2 4 6 4 5 4 4 5 7 7 6 8 8 9 9 7 7 8 8
3 2 3 3 3 3 4 4 3 5 5 5 5 4 3 2 2 3 3 4 3 4 4 3 3 2 3 2 2 2 2 2 2 2 2 5 7 3 4 5 5 6 7 7 7 8 9 8 9 8 8 8
2 2 3 4 3 3 3 3 4 4 4 5 5 3 2 2 1 2 3 3 3 4 4 3 3 3 3 3 3 3 2 3 3 4 3 3 5 7 5 4 5 4 6 7 6 8 7 7 10 10 9 8
3 3 4 3 4 5 3 3 4 4 4 5 4 2 2 1 2 2 2 3 4 4 5 3 3 3 3 3 3 3 3 3 4 3 3 4 3 6 8 5 4 4 6 7 6 4 5 7 8 10 8 6
3 3 3 4 5 4 4 4 5 5 4 5 4 2 2 2 2 2 2 3 4 4 4 2 3 4 4 4 4 3 3 4 4 5 4 4 4 3 6 6 6 6 6 3 7 10 8 2 6 5 1 1
4 4 3 3 4 3 4 4 5 5 5 5 4 3 3 2 2 2 2 3 4 4 3 3 4 4 4 3 3 3 3 3 3 3 5 5 5 6 3 4 5 6 3 5 8 6 5 4 5 2 6 3
4 4 4 5 5 4 4 5 6 5 5 6 4 3 3 2 2 2 2 3 4 4 3 3 4 4 3 3 3 4 4 4 4 3 4 4 5 5 5 3 4 5 7 5 8 5 2 5 3 4 3 8
3 3 4 4 3 3 5 5 6 5 6 5 4 4 2 3 3 2 3 3 4 4 3 3 3 3 2 2 3 4 4 4 4 4 2 3 3 4 4 5 4 5 6 5 5 5 5 5 4 3 5 11
4 4 4 4 4 4 4 6 5 6 5 4 4 5 4 3 2 2 3 4 4 4 3 2 3 2 2 3 4 4 4 4 4 4 3 3 2 3 3 4 4 4 5 5 5 4 4 6 2 7 7 6
5 5 5 6 5 5 5 6 6 5 4 5 5 4 4 3 3 3 4 4 4 3 3 2 2 2 2 3 3 4 4 3 4 4 2 4 3 2 4 4 4 4 5 3 5 6 5 6 6 5 6 1
Wind_Direction
1 360 357 1 2 2 2 4 4 5 6 6 5 2 2 1 3 358 357 360 356 1 2 357 358 352 347 347 348 349 350 349 348 348 351 354 357 358 2 3 4 5 8 9 8 7 6 2 350 127 97 58
353 355 353 357 358 357 359 1 2 4 5 5 4 5 3 2 4 359 357 356 357 356 0 1 358 353 349 348 348 350 353 352 351 347 348 351 355 356 0 2 1 1 8 9 9 8 8 4 0 357 32 33
337 343 348 353 352 353 354 357 358 1 2 3 2 4 3 4 4 2 357 353 355 354 356 357 358 352 352 351 350 351 355 354 352 350 349 351 351 357 358 2 360 360 0 8 11 7 10 7 4 0 9 9
329 324 340 346 344 345 347 350 352 355 357 357 359 359 1 3 5 1 355 355 351 350 354 353 355 353 353 353 353 352 357 357 353 351 353 354 352 355 356 360 359 357 358 2 8 9 10 8 7 4 4 3
324 318 334 339 331 337 337 343 345 349 352 353 353 354 354 358 357 359 352 350 346 350 348 350 351 353 353 353 356 354 358 358 356 352 355 355 357 355 358 357 357 354 354 357 4 7 10 10 7 4 1 4
320 320 328 326 327 326 328 334 339 346 333 347 337 342 342 338 349 349 351 346 352 352 347 345 349 351 354 356 356 357 0 0 357 358 355 356 357 360 357 359 355 348 349 352 358 3 9 11 3 3 1 3
319 325 321 326 334 326 330 328 333 327 328 322 327 325 327 330 319 333 345 340 356 356 350 347 349 351 357 358 0 0 3 359 1 2 359 359 359 360 359 358 353 348 343 344 351 356 2 8 3 359 3 5
322 317 327 332 331 331 326 328 326 321 321 318 318 319 317 312 307 327 319 337 344 353 345 340 347 352 355 355 358 5 2 360 1 1 5 358 1 357 354 352 352 348 344 343 342 346 351 1 2 360 1 5
321 338 343 337 333 342 339 333 328 330 322 320 314 315 311 301 303 312 304 313 328 332 335 336 342 347 350 351 349 2 358 5 348 1 353 3 359 356 352 350 351 347 346 342 341 342 346 355 0 360 358 359
334 4 351 346 337 352 335 345 345 338 336 325 321 316 311 307 315 304 301 302 314 324 336 332 342 348 351 345 355 357 0 358 4 353 355 355 354 356 349 349 347 346 344 339 338 340 344 349 354 357 355 355
358 357 349 321 339 1 331 10 351 349 340 333 328 324 319 319 315 307 288 296 294 302 333 320 337 342 347 352 356 358 355 357 357 354 359 349 353 349 346 349 346 344 343 340 337 338 342 346 346 351 352 355
357 351 352 345 353 349 343 8 356 342 342 337 340 338 330 325 314 303 295 287 288 281 310 315 332 327 342 359 346 0 335 2 348 4 357 352 349 348 347 345 344 342 344 339 337 338 339 339 341 348 348 347
354 343 346 350 355 344 354 351 347 336 339 351 345 342 341 335 323 311 297 280 275 279 283 311 329 338 325 345 349 353 354 352 353 357 357 354 348 347 343 345 341 343 340 340 334 335 336 335 335 341 344 342
13 354 351 350 351 323 354 337 336 340 346 340 346 345 344 338 325 309 297 277 279 277 289 311 337 342 339 337 345 354 349 348 351 347 355 354 347 344 345 345 342 340 336 336 334 331 332 331 330 334 335 337
5 350 336 341 325 325 337 329 335 334 334 333 343 341 337 337 337 329 306 308 314 294 297 341 11 352 335 348 338 343 336 346 337 340 349 348 350 342 341 341 338 337 334 328 330 332 333 325 325 327 329 330
346 335 305 337 325 327 323 323 334 318 322 330 329 332 334 339 338 360 360 0 345 340 343 353 18 347 356 333 340 334 329 336 329 338 335 338 343 333 347 335 329 337 333 328 324 328 329 324 323 323 323 324
269 273 299 305 327 310 324 311 317 311 317 314 313 324 330 332 332 13 356 354 358 351 355 12 12 9 352 338 335 325 333 329 332 338 338 339 347 334 354 342 335 336 323 325 324 325 320 324 323 318 318 316
276 280 286 313 308 308 309 297 307 310 311 304 314 311 320 325 322 14 349 1 352 354 355 5 9 1 349 343 335 332 331 342 333 341 349 338 354 343 353 344 343 335 327 321 317 320 321 322 317 315 313 310
270 286 295 282 286 297 297 291 303 301 302 298 299 305 315 314 309 6 345 6 10 343 356 0 358 358 351 334 342 338 328 334 334 341 343 339 349 339 341 336 342 332 325 320 319 314 320 317 309 310 304 306
243 259 273 264 287 301 285 294 294 300 298 291 294 306 310 309 302 23 335 1 13 4 339 7 346 337 337 335 349 331 334 342 336 337 330 342 334 334 335 339 331 331 323 319 311 310 306 306 305 298 301 300
254 279 280 272 264 267 279 295 289 296 293 292 297 308 304 308 315 18 343 340 2 359 319 351 331 319 324 329 334 329 324 343 321 338 328 333 332 326 321 328 317 323 322 316 312 308 304 300 302 295 293 291
232 255 266 271 263 285 295 280 280 292 294 288 298 310 303 306 348 353 348 327 344 339 317 330 314 309 321 326 327 322 313 316 305 304 320 325 319 321 317 310 320 315 317 315 311 306 304 300 295 293 286 281
218 251 256 258 280 280 271 270 283 287 285 288 306 294 297 333 345 345 341 326 331 329 313 310 310 312 316 318 316 308 306 313 318 321 301 322 313 307 298 303 312 304 311 310 304 300 295 292 296 285 273 267
250 261 282 303 297 278 271 279 281 267 265 287 282 281 297 301 321 332 335 322 322 320 305 314 318 321 313 315 316 310 326 325 330 311 323 304 302 316 310 305 296 300 303 293 288 295 291 293 285 277 261 259
225 255 282 265 269 276 263 271 278 276 281 276 260 266 283 282 311 308 322 326 321 310 315 318 307 315 309 307 319 306 327 311 303 312 319 301 308 319 317 318 301 300 298 315 299 281 271 285 259 260 270 254
229 211 217 247 260 260 256 274 283 278 278 276 257 271 278 279 300 286 300 320 310 309 298 308 316 305 303 320 305 330 334 333 339 329 321 320 322 295 314 312 318 321 335 337 339 340 321 328 277 257 234 331
224 215 227 214 248 236 272 249 250 266 263 271 254 247 249 271 279 278 289 301 305 300 292 304 301 300 307 310 328 336 329 329 330 334 333 337 325 328 323 315 323 333 11 325 337 308 313 340 7 335 360 331
215 210 223 232 228 248 250 264 271 260 264 269 243 262 252 255 262 260 280 291 292 289 277 288 295 298 304 318 330 326 326 322 320 332 330 339 346 352 346 339 331 347 354 359 341 4 325 311 20 335 53 340
225 242 268 247 262 257 264 265 265 265 257 241 240 262 250 263 254 253 283 281 277 280 273 283 286 296 295 326 318 317 307 305 305 312 309 333 344 357 333 352 341 357 323 328 310 304 346 353 22 241 345 342
209 234 233 234 242 254 250 262 241 246 253 247 252 252 243 245 239 271 280 271 269 267 275 273 288 284 312 315 309 297 286 287 300 300 323 321 337 333 340 345 350 329 337 311 340 326 192 232 311 333 326 350
213 226 230 227 225 232 245 257 258 249 245 255 262 252 241 235 246 258 266 267 261 258 269 269 267 277 296 289 284 296 290 286 289 297 304 327 329 304 340 344 327 328 324 356 355 291 307 315 316 295 315 231